Weather History for KOPM - March, 2014

Change the Weather History Date:

Saturday, March 15, 2014

  Actual Average Record
Temperature  
Mean Temperature 68 °F -  
Max Temperature 69 °F - - ()
Min Temperature 66 °F - - ()
Cooling Degree Days 2    
Growing Degree Days 18 (Base 50)    
Moisture  
Dew Point 68 °F    
Average Humidity 100    
Maximum Humidity 100    
Minimum Humidity 94    
Precipitation  
Precipitation 0.05 in - - ()
Sea Level Pressure  
Sea Level Pressure 29.83 in    
Wind  
Wind Speed 15 mph (SE)    
Max Wind Speed 21 mph    
Max Gust Speed -    
Visibility 3 miles    
Events Fog    
T = Trace of Precipitation, MM = Missing Value Source: NWS Daily Summary

Daily Weather History Graph

Daily Weather History Graph

Search for Another Location

Airport or City:

Trip Planner

Search our weather history database for the weather conditions in past years. The results will help you decide how hot, cold, wet, or windy it might be!

Date:

Astronomy

Mar. 15, 2014 Rise Set
Actual Time 7:37 AM CDT 7:36 PM CDT
Civil Twilight 7:13 AM CDT 7:59 PM CDT
Nautical Twilight 6:47 AM CDT 8:26 PM CDT
Astronomical Twilight 6:20 AM CDT 8:53 PM CDT
Moon 6:57 PM CDT (3/15) 6:46 AM CDT (3/15)
Length of Visible Light 12h 45m
Length of Day
11h 59m
Waxing Gibbous, 99% of the Moon is Illuminated
Mar 15
Waxing Gibbous
Mar 16
Full
Mar 23
Last Quarter
Mar 30
New
Apr 7
First Quarter

Hourly Weather History & Observations

Time (CDT) Temp. Dew Point Humidity Pressure Visibility Wind Dir Wind Speed Gust Speed Precip Events Conditions
12:15 AM 68.0 °F 68.0 °F 100% 29.96 in 5.0 mi ESE 15.0 mph - N/A   Overcast
12:35 AM 68.0 °F 68.0 °F 100% 29.95 in 5.0 mi ESE 16.1 mph - N/A   Overcast
12:55 AM 68.0 °F 66.2 °F 94% 29.94 in 5.0 mi ESE 19.6 mph - N/A   Overcast
1:15 AM 68.0 °F 66.2 °F 94% 29.93 in 5.0 mi ESE 19.6 mph - N/A   Overcast
1:35 AM 68.0 °F 66.2 °F 94% 29.92 in 5.0 mi ESE 18.4 mph - N/A   Overcast
1:55 AM 68.0 °F 68.0 °F 100% 29.92 in 5.0 mi ESE 17.3 mph - N/A   Overcast
2:15 AM 68.0 °F 68.0 °F 100% 29.91 in 5.0 mi ESE 20.7 mph - N/A   Overcast
2:35 AM 68.0 °F 68.0 °F 100% 29.91 in 5.0 mi ESE 18.4 mph - N/A   Overcast
2:55 AM 68.0 °F 68.0 °F 100% 29.89 in 5.0 mi ESE 18.4 mph - N/A   Overcast
3:15 AM 68.0 °F 68.0 °F 100% 29.89 in 5.0 mi ESE 18.4 mph - N/A   Overcast
3:35 AM 68.0 °F 68.0 °F 100% 29.88 in 5.0 mi ESE 20.7 mph - N/A   Overcast
3:55 AM 68.0 °F 68.0 °F 100% 29.89 in 5.0 mi SE 16.1 mph - N/A   Overcast
4:15 AM 68.0 °F 68.0 °F 100% 29.89 in 4.0 mi SE 13.8 mph - N/A   Overcast
4:35 AM 69.8 °F 68.0 °F 94% 29.89 in 5.0 mi ESE 17.3 mph - N/A   Overcast
4:55 AM 68.0 °F 68.0 °F 100% 29.89 in 5.0 mi SE 11.5 mph - N/A   Overcast
5:15 AM 68.0 °F 68.0 °F 100% 29.89 in 4.0 mi SE 8.1 mph - N/A   Overcast
5:35 AM 68.0 °F 68.0 °F 100% 29.89 in 4.0 mi ESE 6.9 mph - N/A   Mostly Cloudy
5:55 AM 68.0 °F 68.0 °F 100% 29.88 in 4.0 mi ESE 9.2 mph - N/A   Overcast
6:15 AM 68.0 °F 68.0 °F 100% 29.87 in 4.0 mi ESE 11.5 mph - N/A   Overcast
6:35 AM 68.0 °F 68.0 °F 100% 29.88 in 4.0 mi East 8.1 mph - N/A   Overcast
6:55 AM 68.0 °F 68.0 °F 100% 29.88 in 4.0 mi ESE 6.9 mph - N/A   Overcast
7:15 AM 68.0 °F 68.0 °F 100% 29.88 in 4.0 mi East 6.9 mph - N/A   Overcast
7:35 AM 68.0 °F 68.0 °F 100% 29.88 in 4.0 mi ESE 10.4 mph - N/A   Overcast
7:55 AM 68.0 °F 68.0 °F 100% 29.88 in 3.0 mi ESE 11.5 mph - N/A   Overcast
8:15 AM 68.0 °F 68.0 °F 100% 29.88 in 2.5 mi ESE 10.4 mph - N/A   Overcast
8:35 AM 68.0 °F 68.0 °F 100% 29.88 in 2.5 mi ESE 11.5 mph - N/A   Overcast
8:55 AM 68.0 °F 68.0 °F 100% 29.88 in 2.5 mi SE 12.7 mph - N/A   Mostly Cloudy
9:15 AM 69.8 °F 69.8 °F 100% 29.89 in 2.5 mi SE 12.7 mph - N/A   Mostly Cloudy
9:35 AM 68.0 °F 68.0 °F 100% 29.90 in 2.0 mi SE 9.2 mph - N/A   Scattered Clouds
9:55 AM 68.0 °F 68.0 °F 100% 29.89 in 2.0 mi SE 12.7 mph - N/A   Mostly Cloudy
10:15 AM 68.0 °F 68.0 °F 100% 29.90 in 2.5 mi SE 11.5 mph - N/A   Scattered Clouds
10:35 AM 69.8 °F 69.8 °F 100% 29.89 in 2.5 mi SE 16.1 mph - N/A   Mostly Cloudy
10:55 AM 69.8 °F 69.8 °F 100% 29.89 in 3.0 mi SE 10.4 mph - N/A   Scattered Clouds
11:15 AM 69.8 °F 69.8 °F 100% 29.89 in 2.5 mi SE 13.8 mph - N/A   Partly Cloudy
11:35 AM 68.0 °F 68.0 °F 100% 29.89 in 2.5 mi SE 13.8 mph - N/A   Scattered Clouds
11:55 AM 68.0 °F 68.0 °F 100% 29.88 in 1.5 mi South 10.4 mph - N/A   Overcast
12:15 PM 68.0 °F 68.0 °F 100% 29.88 in 1.5 mi SSE 13.8 mph - N/A   Overcast
12:35 PM 68.0 °F 68.0 °F 100% 29.87 in 1.5 mi SW 10.4 mph - N/A   Mostly Cloudy
12:45 PM 68.0 °F 68.0 °F 100% 29.86 in 0.2 mi South 12.7 mph - N/A Fog Fog
1:15 PM 68.0 °F 68.0 °F 100% 29.85 in 3.0 mi South 16.1 mph - N/A   Mostly Cloudy
1:35 PM 68.0 °F 68.0 °F 100% 29.84 in 1.0 mi South 13.8 mph - N/A   Mostly Cloudy
1:55 PM 68.0 °F 68.0 °F 100% 29.83 in 2.0 mi South 17.3 mph - 0.04 in   Mostly Cloudy
2:15 PM 68.0 °F 68.0 °F 100% 29.83 in 2.0 mi South 11.5 mph - N/A   Scattered Clouds
2:35 PM 66.2 °F 66.2 °F 100% 29.82 in 1.8 mi South 15.0 mph - N/A   Mostly Cloudy
2:55 PM 68.0 °F 68.0 °F 100% 29.80 in 2.5 mi South 15.0 mph - N/A   Mostly Cloudy
3:15 PM 68.0 °F 68.0 °F 100% 29.79 in 2.0 mi SSE 13.8 mph - N/A   Partly Cloudy
3:35 PM 68.0 °F 68.0 °F 100% 29.79 in 3.0 mi SSE 12.7 mph - N/A   Scattered Clouds
3:55 PM 68.0 °F 68.0 °F 100% 29.78 in 3.0 mi SSE 12.7 mph - 0.01 in   Mostly Cloudy
4:15 PM 68.0 °F 68.0 °F 100% 29.77 in 3.0 mi SSE 13.8 mph - N/A   Mostly Cloudy
4:35 PM 68.0 °F 68.0 °F 100% 29.76 in 3.0 mi SE 16.1 mph - N/A   Scattered Clouds
4:55 PM 68.0 °F 68.0 °F 100% 29.76 in 3.0 mi SSE 12.7 mph - N/A   Mostly Cloudy
5:15 PM 68.0 °F 68.0 °F 100% 29.76 in 3.0 mi SE 13.8 mph - N/A   Scattered Clouds
5:35 PM 68.0 °F 68.0 °F 100% 29.75 in 3.0 mi SE 13.8 mph - N/A   Mostly Cloudy
5:55 PM 68.0 °F 68.0 °F 100% 29.75 in 3.0 mi SE 15.0 mph - N/A   Scattered Clouds
6:15 PM 68.0 °F 68.0 °F 100% 29.75 in 3.0 mi SE 15.0 mph - N/A   Mostly Cloudy
6:35 PM 68.0 °F 68.0 °F 100% 29.75 in 3.0 mi SE 13.8 mph - N/A   Overcast
6:55 PM 68.0 °F 68.0 °F 100% 29.74 in 3.0 mi SE 17.3 mph - N/A   Overcast
7:15 PM 68.0 °F 68.0 °F 100% 29.74 in 2.5 mi SE 17.3 mph - N/A   Overcast
7:35 PM 68.0 °F 68.0 °F 100% 29.74 in 2.5 mi SE 18.4 mph - N/A   Overcast
7:55 PM 68.0 °F 68.0 °F 100% 29.74 in 2.5 mi SE 17.3 mph - N/A   Overcast
8:15 PM 68.0 °F 68.0 °F 100% 29.74 in 3.0 mi SE 17.3 mph - N/A   Overcast
8:35 PM 68.0 °F 68.0 °F 100% 29.74 in 3.0 mi SE 17.3 mph - N/A   Overcast
8:55 PM 68.0 °F 68.0 °F 100% 29.74 in 3.0 mi SE 17.3 mph - N/A   Overcast
9:15 PM 68.0 °F 68.0 °F 100% 29.74 in 3.0 mi SE 17.3 mph - N/A   Overcast
9:35 PM 68.0 °F 68.0 °F 100% 29.74 in 3.0 mi SE 17.3 mph - N/A   Overcast
9:55 PM 68.0 °F 68.0 °F 100% 29.74 in 2.0 mi SE 17.3 mph - N/A   Overcast
10:15 PM 68.0 °F 68.0 °F 100% 29.74 in 2.0 mi SE 18.4 mph - N/A   Overcast
10:35 PM 68.0 °F 68.0 °F 100% 29.75 in 1.8 mi SE 17.3 mph - N/A   Overcast
10:55 PM 68.0 °F 68.0 °F 100% 29.75 in 1.2 mi SE 16.1 mph - N/A   Overcast
11:15 PM 68.0 °F 68.0 °F 100% 29.75 in 1.0 mi SE 17.3 mph - N/A   Overcast
11:35 PM 68.0 °F 68.0 °F 100% 29.74 in 1.0 mi SE 17.3 mph - N/A   Overcast
11:55 PM 68.0 °F 68.0 °F 100% 29.74 in 1.0 mi SE 18.4 mph - N/A   Overcast